This demonstration page uses our WeatherBlox Daily Observations layout. Learn more.

Left ArrowRight Arrow

Hourly Observations for April 9, 2018

Temp ( °F °C ) Dew Point ( °F °C ) Humidity (%) Winds ( mph kmh ) Pressure ( in mb ) Visibility ( mi km ) Precip ( " mm )
12:56 am 00:56 Cloudy 32 0 25 -3.9 75 75 N 10 17 29.97 1015 10 16 0.00 0.00
1:56 am 01:56 Mostly Cloudy 32 0 25 -3.9 75 75 N 10 17 30.01 1016 10 16 0.00 0.00
2:56 am 02:56 Cloudy 32 0 25 -3.9 75 75 NW 7 11 30.04 1017 10 16 0.00 0.00
3:56 am 03:56 Mostly Cloudy 31 -0.6 25 -3.9 79 79 WNW 8 13 30.04 1017 10 16 0.00 0.00
4:56 am 04:56 Cloudy 32 0 26 -3.3 79 79 NW 6 9 30.03 1017 10 16 0.00 0.00
5:56 am 05:56 Cloudy 31 -0.6 26 -3.3 82 82 N 6 9 30.07 1018 10 16 0.00 0.00
6:56 am 06:56 Cloudy 31 -0.6 26 -3.3 82 82 N 14 22 30.10 1019 10 16 0.00 0.00
7:56 am 07:56 Cloudy 31 -0.6 26 -3.3 82 82 N 15 24 30.14 1021 10 16 0.00 0.00
8:42 am 08:42 Cloudy with Light Snow 30 -1 27 -3 86 86 NNE 16 26 30.24 1024 2 3 0.00 0.03
8:49 am 08:49 Cloudy with Light Snow 30 -1 27 -3 86 86 NNE 17 28 30.24 1024 2 3 0.00 0.00
8:56 am 08:56 Cloudy with Light Snow 30 -1.1 27 -2.8 88 88 N 16 26 30.18 1022 9 14 0.00 0.03
9:37 am 09:37 Cloudy 30 -1 27 -3 86 86 N 13 20 30.27 1025 10 16 0.00 0.00
9:56 am 09:56 Cloudy 31 -0.6 27 -2.8 85 85 N 16 26 30.22 1023 10 16 0.00 0.03
10:46 am 10:46 Cloudy 34 1 27 -3 75 75 N 17 28 30.30 1026 10 16 0.00 0.00
10:56 am 10:56 Cloudy 34 1.1 26 -3.3 73 73 N 16 26 30.27 1025 10 16 0.00 0.00
11:56 am 11:56 Cloudy 36 2.2 26 -3.3 67 67 N 14 22 30.29 1026 10 16 0.00 0.00
12:56 pm 12:56 Cloudy 36 2.2 25 -3.9 64 64 N 18 30 30.31 1026 10 16 0.00 0.00
1:56 pm 13:56 Cloudy 35 1.7 23 -5 61 61 N 17 28 30.33 1027 10 16 0.00 0.00
2:56 pm 14:56 Cloudy 35 1.7 23 -5 61 61 N 15 24 30.35 1028 10 16 0.00 0.00
3:56 pm 15:56 Cloudy 37 2.8 23 -5 57 57 N 15 24 30.34 1027 10 16 0.00 0.00
4:56 pm 16:56 Mostly Cloudy 37 2.8 24 -4.4 59 59 N 13 20 30.34 1027 10 16 0.00 0.00
5:20 pm 17:20 Mostly Cloudy 39 4 25 -4 56 56 N 15 24 30.33 1027 10 16 0.00 0.00
5:56 pm 17:56 Mostly Sunny 38 3.3 24 -4.4 57 57 N 13 20 30.34 1027 10 16 0.00 0.00
7:56 pm 19:56 Sunny 34 1.1 23 -5 64 64 ENE 7 11 30.34 1027 10 16 0.00 0.00
8:56 pm 20:56 Clear 29 -1.7 22 -5.6 75 75 E 7 11 30.35 1028 10 16 0.00 0.00
9:56 pm 21:56 Clear 28 -2.2 22 -5.6 78 78 SE 8 13 30.37 1028 10 16 0.00 0.00
10:56 pm 22:56 Clear 27 -2.8 22 -5.6 81 81 SE 7 11 30.37 1028 10 16 0.00 0.00
11:56 pm 23:56 Clear 25 -3.9 21 -6.1 85 85 S 6 9 30.37 1028 10 16 0.00 0.00

Powered by AerisWeather